Luke AFB, AZ

7:16 PM MST on December 03, 2016 (GMT -0700)
Luke Air Force Base

Weather History for KLUF - September, 2012

Change the Weather History Date:

Thursday, September 20, 2012

  Actual Average Record
Temperature  
Mean Temperature 89 °F -  
Max Temperature 103 °F 99 °F 109 °F (1962)
Min Temperature 75 °F 62 °F 46 °F (1978)
Cooling Degree Days 24    
Growing Degree Days 39 (Base 50)    
Moisture  
Dew Point 43 °F    
Average Humidity 23    
Maximum Humidity 33    
Minimum Humidity 10    
Precipitation  
Precipitation 0.00 in - - ()
Sea Level Pressure  
Sea Level Pressure 29.82 in    
Wind  
Wind Speed 6 mph (North)    
Max Wind Speed 12 mph    
Max Gust Speed -    
Visibility 10 miles    
Events      
Averages and records for this station are not official NWS values.
T = Trace of Precipitation, MM = Missing Value Source: NWS Daily Summary

Daily Weather History Graph

Daily Weather History Graph

Search for Another Location

Airport or City:

Trip Planner

Search our weather history database for the weather conditions in past years. The results will help you decide how hot, cold, wet, or windy it might be!

Date:

Astronomy

Sep. 20, 2012 Rise Set
Actual Time 6:16 AM MST 6:28 PM MST
Civil Twilight 5:51 AM MST 6:53 PM MST
Nautical Twilight 5:22 AM MST 7:22 PM MST
Astronomical Twilight 4:53 AM MST 7:51 PM MST
Moon 11:21 AM MST (9/20) 9:51 PM MST (9/20)
Length of Visible Light 13h 01m
Length of Day
12h 11m
Waxing Crescent, 28% of the Moon is Illuminated
Sep 20
Waxing Crescent
Sep 22
First Quarter
Sep 29
Full
Oct 8
Last Quarter
Oct 15
New

Hourly Weather History & Observations

Time (MST) Temp. Dew Point Humidity Pressure Visibility Wind Dir Wind Speed Gust Speed Precip Events Conditions
12:55 AM 81.0 °F 43.2 °F 26% 29.82 in 10.0 mi NNE 4.6 mph - N/A   Clear
1:55 AM 79.9 °F 43.2 °F 27% 29.82 in 10.0 mi NE 5.8 mph - N/A   Clear
2:55 AM 77.2 °F 46.0 °F 33% 29.82 in 10.0 mi NE 5.8 mph - N/A   Clear
3:55 AM 77.9 °F 42.8 °F 29% 29.81 in 10.0 mi North 5.8 mph - N/A   Clear
4:50 AM 75.2 °F 42.8 °F 31% 29.81 in 4.0 mi North 10.4 mph - N/A   Haze
4:52 AM 75.2 °F 42.8 °F 31% 29.87 in 10.0 mi North 9.2 mph - N/A   Clear
4:53 AM 77.0 °F 42.8 °F 29% 29.81 in 5.0 mi North 9.2 mph - N/A   Haze
4:55 AM 76.3 °F 42.3 °F 30% 29.82 in 6.0 mi North 8.1 mph - N/A   Haze
4:56 AM 75.2 °F 42.8 °F 31% 30.01 in 10.0 mi West 6.9 mph - N/A   Clear
5:55 AM 75.6 °F 42.6 °F 31% 29.83 in 10.0 mi NNW 3.5 mph - N/A   Mostly Cloudy
6:55 AM 78.8 °F 44.8 °F 30% 29.85 in 10.0 mi NNE 4.6 mph - N/A   Overcast
7:55 AM 82.8 °F 49.1 °F 31% 29.87 in 10.0 mi NE 4.6 mph - N/A   Mostly Cloudy
8:08 AM 84.2 °F 46.4 °F 27% 29.87 in 10.0 mi NE 5.8 mph - N/A   Light Drizzle
8:18 AM 84.2 °F 46.4 °F 27% 29.87 in 10.0 mi ENE 5.8 mph - N/A   Mostly Cloudy
8:55 AM 87.4 °F 46.0 °F 24% 29.88 in 10.0 mi NNE 3.5 mph - N/A   Partly Cloudy
9:55 AM 92.5 °F 41.0 °F 17% 29.88 in 10.0 mi East 3.5 mph - N/A   Clear
10:55 AM 95.2 °F 41.4 °F 15% 29.87 in 10.0 mi NNE 4.6 mph - N/A   Clear
11:55 AM 98.4 °F 42.3 °F 15% 29.85 in 10.0 mi NNW 3.5 mph - N/A   Clear
12:55 PM 100.8 °F 40.1 °F 12% 29.82 in 10.0 mi Calm Calm - N/A   Clear
1:55 PM 103.5 °F 38.5 °F 11% 29.79 in 10.0 mi NW 5.8 mph - N/A   Clear
2:55 PM 103.1 °F 39.7 °F 11% 29.78 in 10.0 mi Calm Calm - N/A   Clear
3:55 PM 103.1 °F 39.7 °F 11% 29.76 in 10.0 mi SSW 9.2 mph - N/A   Clear
4:55 PM 102.7 °F 37.0 °F 10% 29.75 in 10.0 mi West 8.1 mph - N/A   Clear
5:55 PM 101.3 °F 39.6 °F 12% 29.75 in 10.0 mi SSW 11.5 mph - N/A   Clear
6:55 PM 97.0 °F 42.1 °F 15% 29.76 in 10.0 mi SSW 5.8 mph - N/A   Clear
7:55 PM 92.1 °F 45.0 °F 20% 29.77 in 10.0 mi WSW 4.6 mph - N/A   Clear
8:52 PM 89.6 °F 44.6 °F 21% 29.78 in 10.0 mi WNW 5.8 mph - N/A   Clear
8:55 PM 89.6 °F 45.5 °F 22% 29.78 in 10.0 mi Calm Calm - N/A   Clear
9:00 PM 87.8 °F 46.4 °F 24% 29.78 in 10.0 mi West 4.6 mph - N/A   Clear
9:55 PM 86.2 °F 49.3 °F 28% 29.78 in 10.0 mi WNW 4.6 mph - 0.00 in   Clear
10:55 PM 83.1 °F 47.5 °F 29% 29.78 in 10.0 mi NE 5.8 mph - N/A   Clear
11:55 PM 82.0 °F 45.0 °F 27% 29.78 in 10.0 mi North 3.5 mph - N/A   Clear